Weather observations for the past three days for
Hastings, Hastings Municipal Airport
Metric (Imperial)
Date Time (cdt) Wind (kph) Vis. (km) Weather Sky Cond. Temperature (ºC) Relative Humidity Wind Chill (°C) Heat Index (°C) Pressure Precipitation (cm)
Air Dwpt 6 hour altimeter (cm) sea level (mb) 1 hr 3 hr 6 hr
Max. Min.
31 11:53 Calm 16.09 Fair CLR 26.7 18.9 62% 28 76.23 1014.5
31 10:53 NE 11 16.09 Fair CLR 25 18.3 66% 26 76.2 1014.0
31 09:53 N 15 16.09 Fair CLR 23.3 17.8 71% 76.17 1013.7
31 08:53 NW 15 16.09 Fair CLR 21.7 18.3 81% 76.12 1013.1
31 07:53 NW 17 16.09 Fair CLR 21.1 17.8 82% 76.1 1012.6
31 06:53 Calm 16.09 A Few Clouds FEW100 FEW120 21.1 18.3 24.4 21.1 84% 76.07 1012.3 0.03 0.03
31 05:53 W 20 16.09 Light Rain FEW100 SCT120 23.3 17.8 71% 76.2 1013.8
31 04:53 W 15 16.09 Partly Cloudy SCT100 23.3 20 82% 76.05 1011.9
31 03:53 SW 9 16.09 Fair CLR 22.8 20.6 87% 75.97 1010.8
31 02:53 SW 6 16.09 Fair CLR 22.8 20.6 87% 75.95 1010.5
31 01:53 SW 9 16.09 Fair CLR 23.9 20.6 82% 24 75.92 1010.1
30 23:53 Calm 16.09 Fair CLR 23.9 21.7 88% 24 75.84 1009.3
30 22:53 Calm 16.09 Fair CLR 24.4 21.7 85% 25 75.87 1009.5
30 21:53 Calm 16.09 Fair CLR 25 22.2 85% 26 75.9 1010.0
30 20:53 Calm 16.09 Fair CLR 26.7 22.8 79% 29 75.87 1009.4
30 19:53 Calm 16.09 Fair CLR 28.9 22.2 67% 32 75.84 1009.1
30 18:53 Calm 16.09 Fair CLR 30.6 22.2 31.1 29.4 61% 34 75.84 1009.1
30 17:53 S 7 16.09 Fair CLR 31.1 21.7 57% 34 75.82 1008.5
30 16:53 S 13 16.09 Fair CLR 31.1 21.7 57% 34 75.82 1008.4
30 15:53 S 9 16.09 Fair CLR 30.6 21.7 59% 34 75.82 1008.8
30 14:53 S 13 16.09 Fair CLR 30.6 22.2 61% 34 75.84 1008.7
30 13:53 Calm 16.09 Fair CLR 31.1 19.4 50% 33 75.82 1008.4
30 12:53 W 7 16.09 Fair CLR 30 20.6 30.6 21.7 57% 32 75.84 1008.9
30 11:53 NW 13 16.09 Fair CLR 27.8 20 63% 29 75.82 1008.6
30 10:53 SW 15 16.09 Fair CLR 26.7 18.3 60% 28 75.9 1009.4
30 09:53 W 13 16.09 Fair CLR 25 17.2 62% 26 75.79 1008.7
30 08:53 S 9 16.09 Fair CLR 24.4 16.1 60% 26 75.79 1008.3
30 07:53 S 13 16.09 Fair CLR 22.2 16.1 68% 75.74 1007.6
30 06:53 S 13 16.09 Fair CLR 22.8 16.7 26.1 22.8 69% 75.72 1007.3
30 05:53 SE 11 16.09 Fair CLR 23.9 18.3 71% 25 75.72 1007.2
30 04:53 E 13 16.09 Fair CLR 23.9 18.9 74% 25 75.77 1007.9
30 03:53 Calm 16.09 Fair CLR 22.8 19.4 81% 75.9 1009.5
30 02:53 SW 6 16.09 A Few Clouds FEW110 24.4 17.8 67% 25 75.9 1009.6
30 01:53 S 11 16.09 Fair CLR 25 16.7 60% 26 75.79 1008.3
30 00:53 S 11 16.09 Fair CLR 26.1 17.2 33.3 25 58% 27 75.79 1008.1
29 23:53 S 15 16.09 Fair CLR 28.3 17.8 53% 29 75.77 1007.8
29 22:53 SE 13 16.09 Fair CLR 29.4 20.6 59% 32 75.77 1007.9
29 21:53 Calm 16.09 Fair CLR 26.1 22.8 82% 28 75.79 1008.4
29 20:53 Calm 11.27 Fair CLR 27.2 23.3 79% 30 75.74 1007.9
29 19:53 Calm 16.09 Fair CLR 31.7 21.1 53% 35 75.74 1007.5
29 18:53 S 6 16.09 Fair CLR 33.3 21.1 33.9 30 49% 37 75.72 1007.2
29 17:53 SW 7 16.09 Fair CLR 33.3 20.6 47% 36 75.74 1007.5
29 16:53 S 13 16.09 Fair CLR 33.3 20 46% 36 75.74 1007.7
29 15:53 SW 19 16.09 Fair CLR 32.8 19.4 45% 35 75.82 1008.4
29 14:53 S 19 16.09 Fair CLR 32.2 18.3 44% 33 75.87 1009.2
29 13:53 S 20 16.09 Fair CLR 31.1 18.9 48% 32 75.87 1009.4
29 12:53 SW 17 16.09 Fair CLR 30 18.3 30 21.1 49% 31 75.92 1010.1
29 11:53 SW 19 G 33 16.09 Fair CLR 28.3 16.7 49% 29 75.95 1010.5
29 10:53 SW 20 G 30 16.09 Fair CLR 26.7 15.6 51% 27 75.97 1010.9
29 09:53 S 17 G 31 16.09 Fair CLR 25 15 54% 26 75.97 1011.1
29 08:53 S 17 G 31 16.09 Fair CLR 23.9 15 58% 25 75.97 1010.9
29 07:53 S 15 16.09 Fair CLR 22.2 14.4 61% 76 1011.2
29 06:53 S 13 G 28 16.09 Fair CLR 21.7 13.9 23.3 21.7 61% 76 1011.2
29 05:53 S 17 16.09 A Few Clouds FEW120 22.2 13.9 59% 76.02 1011.5
29 04:53 S 17 G 33 16.09 Partly Cloudy FEW065 SCT080 22.8 14.4 59% 76.07 1012.0
29 03:53 S 19 16.09 Fair CLR 23.3 14.4 57% 76.1 1012.5
29 02:53 S 13 16.09 Fair CLR 22.2 16.1 68% 76.12 1012.9
29 01:53 S 13 16.09 Fair CLR 22.2 17.2 73% 76.15 1013.2
29 00:53 S 17 16.09 Fair CLR 22.8 17.2 28.9 22.8 71% 76.17 1013.6
28 23:53 S 17 16.09 Fair CLR 23.9 17.8 69% 25 76.17 1013.6
28 22:53 S 19 16.09 Fair CLR 24.4 18.3 69% 25 76.15 1013.6
28 21:53 SE 19 16.09 Fair CLR 25 18.9 69% 26 76.17 1013.8
28 20:53 SE 17 16.09 Fair CLR 26.1 18.9 65% 27 76.12 1013.2
28 19:53 SE 17 16.09 Fair CLR 27.2 18.9 61% 28 76.15 1013.6
28 18:53 SE 17 16.09 Fair CLR 28.9 18.9 31.1 27.2 55% 30 76.17 1014.0
28 17:53 S 19 G 28 16.09 Fair CLR 31.1 18.3 46% 32 76.23 1014.4
28 16:53 S 22 G 37 16.09 Fair CLR 31.1 18.9 48% 32 76.25 1014.5
28 15:53 S 19 16.09 Fair CLR 31.1 19.4 50% 33 76.3 1015.2
28 14:53 S 20 16.09 Fair CLR 30 18.9 51% 31 76.35 1016.1
28 13:53 S 19 G 31 16.09 Fair CLR 28.9 18.3 53% 30 76.4 1016.6
28 12:53 SW 17 16.09 Fair CLR 27.2 18.3 27.2 17.8 58% 28 76.48 1017.8
Date Time (cdt) Wind (kph) Vis. (km) Weather Sky Cond. Air Dwpt Max. Min. Relative Humidity Wind Chill (°C) Heat Index (°C) altimeter (cm) sea level (mb) 1 hr 3 hr 6 hr
6 hour
Temperature (ºC) Pressure Precipitation (cm)